Regional Weather Roundup
Issued by NWS

Home | Current Version | Previous Version | Text Only | Print | Product List | Glossary On
Versions: 1 2 3 4 5 6 7 8 9 10 11 12 13 14 15 16 17 18 19 20 21 22 23 24 25 26 27 28 29 30 31 32 33 34 35 36 37 38 39 40 41 42 43 44 45 46 47 48 49 50
000
ASUS44 KLIX 051112
RWRLA
LOUISIANA WEATHER ROUNDUP
NATIONAL WEATHER SERVICE NEW ORLEANS LA
600 AM CDT SAT SEP 05 2015

NOTE: "FAIR" INDICATES FEW OR NO CLOUDS BELOW 12,000 FEET WITH NO
      SIGNIFICANT WEATHER AND/OR OBSTRUCTIONS TO VISIBILITY.
      SKY/WX - SKY CONDITION AND SIGNIFICANT WEATHER.
      TMP - AIR TEMPERATURE.    DP   - DEWPOINT TEMPERATURE.
      RH  - RELATIVE HUMIDITY.  PRES - PRESSURE.
      HX  - HEAT INDEX.         WCI  - WIND CHILL INDEX.

*  THESE STATIONS ARE NOT NWS OR FAA STATIONS AND ARE NOT UNDER
   NWS QUALITY CONTROL.

LAZ040-048-061>063-065-066-069-051200-
SOUTHEAST LOUISIANA

CITY           SKY/WX    TMP DP  RH WIND       PRES   REMARKS
N.O. AUDUBON   NOT AVBL
N.O. INTL ARPT MOCLDY    78  74  87 CALM      30.01R
N.O. LAKEFRONT CLEAR     81  77  88 W5        30.01R
N.O. DOWNTOWN* FAIR      79  75  89 CALM      30.02R
RESERVE*       PTSUNNY   76  74  93 CALM      30.01R FOG
SLIDELL        CLEAR     73  72  96 CALM      30.01R
BATON ROUGE    CLEAR     74  72  93 CALM      30.01R
BOOTHVILLE     PTCLDY    80  77  90 NW3       30.01R
BELLE CHASSE   MOCLDY    75  73  93 CALM      30.01R
BOGALUSA*      NOT AVBL
GALLIANO*      SUNNY     71  71 100 CALM      30.00S FOG
NEW ROADS*     FAIR      73  72  98 CALM      30.01S
GONZALES*      FAIR      74  74 100 CALM      30.00R
HAMMOND*       CLEAR     73  70  88 CALM      30.03R
HOUMA*         CLEAR     73  73 100 CALM      30.01R FOG
PORT FOURCHON* MOSUNNY   77  72  83 W8G18     30.03R HAZE

$$

LAZ041-044-053-054-051200-
SOUTHWEST LOUISIANA

CITY           SKY/WX    TMP DP  RH WIND       PRES   REMARKS
LAKE CHARLES   CLEAR     77  75  93 CALM      29.99S
LAFAYETTE      PTCLDY    76  74  93 CALM      30.01R
PATTERSON      CLEAR     73  72  94 CALM      30.02R VSB 1
SALT POINT       N/A     78  77  96 CALM      29.99R
NEW IBERIA     PTCLDY    75  74  96 CALM      30.01R
CHENAULT AIRPK PTCLDY    75  75 100 CALM      30.00S

$$

LAZ027-028-051200-
CENTRAL LOUISIANA

CITY           SKY/WX    TMP DP  RH WIND       PRES   REMARKS
FORT POLK      CLEAR     74  73  95 SE2       30.00R
ALEXANDRIA INT CLEAR     74  73  97 SE3       29.99R
ALEXANDRIA     CLEAR     74  70  87 CALM      30.01S FOG

$$

LAZ001-002-051200-
NORTHWEST LOUISIANA

CITY           SKY/WX    TMP DP  RH WIND       PRES   REMARKS
SHREVEPORT     PTCLDY    75  72  90 CALM      30.00R
BARKSDALE AFB  CLEAR     73  73 100 SE6       30.00R
DTN SHREVEPORT CLEAR     77  73  87 S3        30.00R

$$

LAZ014-016-051200-
NORTHEAST LOUISIANA

CITY           SKY/WX    TMP DP  RH WIND       PRES   REMARKS
MONROE         CLEAR     72  71  97 S3        30.01R
TALLULAH       CLEAR     72  70  93 CALM      30.01R

$$



USA.gov is the U.S. government's official web portal to all federal, state and local government web resources and services.